QPF
0.11 0.14 0.18 0.15 0.10 0.10 0.12 0.09 0.07 0.07 0.10 0.09 0.09 0.11 0.15 0.15 0.18 0.17 0.16 0.18 0.12 0.10 0.09 0.08 0.06 0.05 0.06 0.06 0.05 0.05 0.04 0.04 0.03 0.03 0.03 0.02 0.02 0.03 0.03 0.02 0.02 0.03 0.04
0.11 0.15 0.16 0.16 0.13 0.11 0.11 0.11 0.08 0.07 0.08 0.08 0.07 0.06 0.07 0.09 0.10 0.11 0.11 0.13 0.12 0.09 0.09 0.09 0.09 0.09 0.08 0.07 0.06 0.05 0.06 0.06 0.06 0.05 0.04 0.04 0.04 0.04 0.05 0.04 0.04 0.04 0.04
0.11 0.13 0.14 0.14 0.17 0.17 0.11 0.09 0.07 0.07 0.07 0.06 0.05 0.04 0.04 0.06 0.08 0.13 0.13 0.09 0.08 0.08 0.09 0.09 0.09 0.12 0.12 0.11 0.09 0.08 0.07 0.07 0.07 0.08 0.08 0.06 0.04 0.05 0.06 0.08 0.06 0.04 0.03
0.13 0.14 0.14 0.13 0.12 0.14 0.12 0.09 0.07 0.07 0.06 0.05 0.04 0.03 0.03 0.04 0.05 0.07 0.08 0.09 0.07 0.06 0.05 0.06 0.07 0.07 0.09 0.11 0.12 0.11 0.13 0.13 0.12 0.11 0.10 0.09 0.07 0.06 0.07 0.08 0.08 0.07 0.06
0.11 0.17 0.13 0.10 0.09 0.10 0.11 0.10 0.08 0.07 0.06 0.05 0.04 0.03 0.03 0.03 0.03 0.04 0.05 0.07 0.08 0.07 0.04 0.05 0.06 0.07 0.07 0.09 0.13 0.15 0.14 0.12 0.10 0.08 0.08 0.10 0.12 0.12 0.11 0.10 0.10 0.11 0.11
0.06 0.09 0.08 0.08 0.10 0.10 0.09 0.09 0.08 0.06 0.05 0.05 0.04 0.03 0.04 0.04 0.04 0.04 0.04 0.04 0.05 0.05 0.04 0.04 0.05 0.06 0.06 0.07 0.08 0.10 0.12 0.11 0.10 0.08 0.08 0.10 0.11 0.12 0.12 0.11 0.10 0.10 0.11
0.05 0.05 0.05 0.06 0.07 0.08 0.08 0.08 0.07 0.06 0.04 0.04 0.03 0.03 0.04 0.05 0.05 0.05 0.05 0.05 0.05 0.05 0.05 0.05 0.05 0.04 0.04 0.06 0.07 0.09 0.09 0.10 0.10 0.09 0.09 0.11 0.10 0.10 0.12 0.12 0.11 0.10 0.10
0.06 0.06 0.05 0.06 0.06 0.05 0.05 0.06 0.06 0.05 0.03 0.04 0.04 0.04 0.05 0.04 0.04 0.05 0.06 0.05 0.05 0.04 0.04 0.04 0.04 0.04 0.04 0.03 0.04 0.05 0.07 0.07 0.10 0.11 0.11 0.11 0.10 0.10 0.11 0.12 0.13 0.13 0.14
0.04 0.04 0.04 0.03 0.05 0.04 0.04 0.06 0.08 0.06 0.04 0.03 0.04 0.04 0.05 0.05 0.05 0.05 0.05 0.04 0.04 0.03 0.03 0.03 0.03 0.03 0.03 0.03 0.03 0.04 0.04 0.05 0.07 0.10 0.12 0.12 0.11 0.09 0.10 0.13 0.15 0.15 0.15
0.03 0.03 0.04 0.03 0.03 0.04 0.05 0.06 0.05 0.05 0.04 0.04 0.04 0.04 0.04 0.04 0.05 0.05 0.04 0.04 0.04 0.04 0.04 0.03 0.02 0.02 0.02 0.02 0.03 0.04 0.03 0.04 0.05 0.08 0.10 0.12 0.11 0.13 0.14 0.15 0.16 0.15 0.13
0.03 0.02 0.04 0.04 0.03 0.04 0.07 0.06 0.05 0.03 0.03 0.03 0.03 0.03 0.03 0.03 0.03 0.04 0.04 0.06 0.05 0.04 0.03 0.02 0.02 0.02 0.02 0.02 0.02 0.02 0.02 0.02 0.03 0.06 0.10 0.13 0.14 0.16 0.15 0.14 0.13 0.11 0.09
0.04 0.05 0.06 0.04 0.03 0.03 0.05 0.04 0.03 0.02 0.02 0.02 0.02 0.03 0.03 0.03 0.02 0.04 0.05 0.07 0.08 0.06 0.04 0.02 0.01 0.01 0.01 0.01 0.01 0.01 0.01 0.01 0.03 0.05 0.08 0.10 0.10 0.12 0.14 0.12 0.10 0.09 0.09
0.04 0.04 0.03 0.02 0.02 0.02 0.02 0.01 0.02 0.02 0.02 0.02 0.03 0.03 0.03 0.02 0.02 0.02 0.05 0.06 0.06 0.04 0.03 0.02 0.01 0.00 0.01 0.01 0.01 0.01 0.02 0.02 0.03 0.04 0.04 0.04 0.06 0.09 0.12 0.10 0.07 0.06 0.07
0.01 0.01 0.01 0.01 0.01 0.01 0.01 0.01 0.02 0.01 0.01 0.02 0.04 0.05 0.06 0.04 0.02 0.02 0.04 0.04 0.05 0.04 0.02 0.02 0.02 0.01 0.01 0.02 0.02 0.01 0.01 0.02 0.02 0.03 0.04 0.04 0.04 0.05 0.06 0.05 0.04 0.04 0.06
0.01 0.00 0.00 0.00 0.00 0.00 0.00 0.01 0.02 0.02 0.02 0.02 0.02 0.03 0.05 0.05 0.02 0.02 0.02 0.02 0.03 0.03 0.02 0.01 0.01 0.01 0.01 0.02 0.03 0.01 0.01 0.02 0.03 0.03 0.04 0.05 0.04 0.03 0.03 0.03 0.03 0.03 0.04
0.00 0.00 0.00 0.00 0.00 0.00 0.00 0.01 0.02 0.02 0.03 0.02 0.02 0.03 0.04 0.05 0.04 0.02 0.02 0.02 0.03 0.03 0.02 0.01 0.01 0.01 0.01 0.01 0.03 0.02 0.02 0.02 0.03 0.03 0.03 0.04 0.04 0.03 0.03 0.03 0.02 0.02 0.02
0.00 0.00 0.00 0.00 0.00 0.00 0.01 0.01 0.01 0.01 0.02 0.02 0.02 0.02 0.03 0.03 0.05 0.03 0.02 0.03 0.03 0.02 0.03 0.02 0.01 0.02 0.01 0.01 0.02 0.03 0.03 0.02 0.02 0.02 0.02 0.03 0.03 0.04 0.04 0.03 0.02 0.02 0.02
0.00 0.00 0.00 0.00 0.00 0.00 0.01 0.01 0.01 0.01 0.02 0.02 0.02 0.01 0.02 0.03 0.04 0.02 0.02 0.02 0.02 0.02 0.03 0.03 0.02 0.02 0.02 0.01 0.01 0.02 0.03 0.03 0.02 0.02 0.02 0.02 0.03 0.04 0.03 0.03 0.03 0.03 0.03
0.00 0.00 0.00 0.00 0.01 0.01 0.01 0.02 0.01 0.02 0.02 0.02 0.01 0.01 0.02 0.02 0.02 0.01 0.01 0.01 0.01 0.01 0.01 0.02 0.02 0.02 0.02 0.02 0.02 0.01 0.01 0.02 0.01 0.02 0.02 0.02 0.03 0.03 0.03 0.02 0.03 0.03 0.03
0.00 0.00 0.00 0.01 0.01 0.01 0.01 0.02 0.02 0.02 0.02 0.01 0.01 0.01 0.01 0.02 0.01 0.01 0.01 0.01 0.01 0.02 0.02 0.02 0.02 0.02 0.02 0.02 0.02 0.01 0.01 0.01 0.01 0.01 0.01 0.02 0.02 0.02 0.02 0.02 0.02 0.02 0.02
0.00 0.00 0.00 0.01 0.01 0.01 0.02 0.03 0.02 0.01 0.01 0.01 0.01 0.01 0.01 0.01 0.01 0.01 0.01 0.01 0.01 0.01 0.03 0.03 0.03 0.02 0.02 0.02 0.01 0.01 0.01 0.01 0.01 0.01 0.01 0.01 0.00 0.00 0.01 0.01 0.01 0.01 0.01
0.00 0.00 0.00 0.00 0.01 0.01 0.02 0.04 0.02 0.02 0.02 0.02 0.02 0.02 0.01 0.01 0.01 0.02 0.02 0.02 0.02 0.01 0.02 0.03 0.03 0.03 0.02 0.02 0.02 0.01 0.01 0.01 0.01 0.01 0.01 0.01 0.00 0.00 0.00 0.00 0.00 0.00 0.00
0.00 0.00 0.00 0.00 0.00 0.01 0.01 0.03 0.02 0.02 0.02 0.02 0.02 0.02 0.01 0.01 0.01 0.01 0.01 0.01 0.01 0.02 0.02 0.02 0.02 0.02 0.02 0.03 0.02 0.01 0.01 0.01 0.01 0.00 0.00 0.00 0.00 0.00 0.00 0.00 0.00 0.00 0.00
0.00 0.00 0.00 0.00 0.00 0.01 0.01 0.02 0.02 0.01 0.01 0.01 0.01 0.01 0.02 0.02 0.01 0.01 0.01 0.01 0.01 0.01 0.02 0.02 0.02 0.02 0.02 0.02 0.02 0.02 0.01 0.01 0.01 0.00 0.00 0.00 0.00 0.00 0.00 0.00 0.00 0.00 0.00
0.01 0.01 0.01 0.01 0.00 0.01 0.01 0.01 0.02 0.02 0.01 0.01 0.00 0.00 0.01 0.02 0.01 0.01 0.01 0.01 0.01 0.01 0.02 0.03 0.03 0.02 0.02 0.01 0.01 0.01 0.01 0.01 0.01 0.01 0.01 0.00 0.00 0.00 0.00 0.00 0.00 0.00 0.00
0.01 0.01 0.02 0.02 0.01 0.01 0.01 0.01 0.02 0.02 0.02 0.01 0.00 0.00 0.01 0.01 0.01 0.01 0.01 0.01 0.01 0.01 0.01 0.02 0.02 0.02 0.01 0.01 0.01 0.01 0.01 0.01 0.01 0.01 0.01 0.01 0.00 0.00 0.00 0.00 0.00 0.00 0.00
MSLP
1019.35 1019.15 1018.86 1018.55 1018.30 1018.16 1018.13 1018.22 1018.37 1018.55 1018.68 1018.73 1018.69 1018.56 1018.38 1018.17 1017.98 1017.85 1017.79 1017.80 1017.88 1018.01 1018.17 1018.35 1018.53 1018.70 1018.86 1019.00 1019.12 1019.23 1019.32 1019.40 1019.47 1019.55 1019.65 1019.78 1019.94 1020.13 1020.32 1020.52 1020.70 1020.87 1021.02
1019.32 1019.09 1018.77 1018.44 1018.17 1018.00 1017.96 1018.03 1018.18 1018.36 1018.50 1018.57 1018.55 1018.43 1018.25 1018.03 1017.82 1017.65 1017.55 1017.54 1017.60 1017.72 1017.89 1018.09 1018.29 1018.48 1018.64 1018.77 1018.87 1018.93 1018.98 1019.02 1019.08 1019.15 1019.26 1019.41 1019.60 1019.81 1020.04 1020.26 1020.46 1020.65 1020.82
1019.24 1019.00 1018.67 1018.35 1018.07 1017.91 1017.86 1017.93 1018.08 1018.25 1018.40 1018.48 1018.47 1018.36 1018.18 1017.95 1017.71 1017.51 1017.38 1017.33 1017.37 1017.49 1017.66 1017.87 1018.09 1018.29 1018.45 1018.56 1018.64 1018.66 1018.67 1018.67 1018.69 1018.75 1018.86 1019.03 1019.24 1019.48 1019.73 1019.98 1020.21 1020.42 1020.62
1019.16 1018.91 1018.60 1018.30 1018.05 1017.89 1017.85 1017.92 1018.05 1018.22 1018.36 1018.44 1018.44 1018.33 1018.15 1017.92 1017.67 1017.45 1017.28 1017.21 1017.23 1017.34 1017.51 1017.73 1017.96 1018.16 1018.32 1018.42 1018.46 1018.45 1018.41 1018.36 1018.35 1018.38 1018.48 1018.64 1018.85 1019.11 1019.38 1019.65 1019.91 1020.14 1020.37
1019.11 1018.88 1018.60 1018.33 1018.11 1017.98 1017.94 1017.99 1018.11 1018.25 1018.37 1018.45 1018.44 1018.34 1018.17 1017.94 1017.68 1017.46 1017.28 1017.19 1017.20 1017.30 1017.48 1017.70 1017.94 1018.14 1018.29 1018.37 1018.37 1018.32 1018.22 1018.12 1018.04 1018.03 1018.09 1018.23 1018.43 1018.68 1018.95 1019.23 1019.50 1019.76 1020.01
1019.14 1018.93 1018.69 1018.46 1018.27 1018.15 1018.11 1018.14 1018.22 1018.33 1018.42 1018.47 1018.46 1018.37 1018.21 1018.00 1017.76 1017.55 1017.38 1017.29 1017.30 1017.40 1017.59 1017.81 1018.05 1018.25 1018.38 1018.43 1018.39 1018.27 1018.10 1017.93 1017.78 1017.70 1017.70 1017.78 1017.94 1018.15 1018.40 1018.67 1018.94 1019.21 1019.48
1019.26 1019.07 1018.87 1018.67 1018.51 1018.40 1018.34 1018.33 1018.37 1018.43 1018.48 1018.51 1018.48 1018.40 1018.27 1018.09 1017.89 1017.71 1017.57 1017.51 1017.54 1017.65 1017.83 1018.06 1018.29 1018.48 1018.58 1018.59 1018.49 1018.31 1018.06 1017.79 1017.55 1017.37 1017.28 1017.27 1017.35 1017.51 1017.71 1017.94 1018.20 1018.47 1018.76
1019.46 1019.28 1019.11 1018.94 1018.79 1018.68 1018.60 1018.56 1018.54 1018.54 1018.55 1018.55 1018.52 1018.45 1018.35 1018.22 1018.07 1017.94 1017.85 1017.83 1017.88 1018.01 1018.20 1018.43 1018.65 1018.82 1018.89 1018.85 1018.68 1018.41 1018.07 1017.69 1017.34 1017.03 1016.82 1016.70 1016.68 1016.74 1016.88 1017.06 1017.29 1017.55 1017.86
1019.70 1019.54 1019.38 1019.23 1019.09 1018.97 1018.86 1018.77 1018.71 1018.65 1018.62 1018.59 1018.55 1018.51 1018.44 1018.36 1018.28 1018.21 1018.18 1018.20 1018.29 1018.45 1018.65 1018.88 1019.09 1019.23 1019.26 1019.16 1018.93 1018.57 1018.12 1017.62 1017.13 1016.69 1016.33 1016.08 1015.94 1015.90 1015.95 1016.08 1016.28 1016.54 1016.88
1019.96 1019.80 1019.65 1019.51 1019.37 1019.24 1019.10 1018.97 1018.86 1018.76 1018.68 1018.63 1018.59 1018.56 1018.53 1018.50 1018.48 1018.47 1018.50 1018.57 1018.70 1018.89 1019.11 1019.34 1019.54 1019.65 1019.65 1019.50 1019.19 1018.74 1018.19 1017.57 1016.95 1016.36 1015.87 1015.48 1015.22 1015.07 1015.04 1015.11 1015.29 1015.56 1015.93
1020.20 1020.04 1019.89 1019.76 1019.62 1019.47 1019.31 1019.15 1018.99 1018.85 1018.74 1018.66 1018.61 1018.59 1018.59 1018.60 1018.63 1018.67 1018.75 1018.87 1019.04 1019.26 1019.50 1019.74 1019.94 1020.04 1020.01 1019.82 1019.45 1018.93 1018.29 1017.57 1016.82 1016.12 1015.49 1014.98 1014.61 1014.37 1014.27 1014.31 1014.47 1014.77 1015.19
1020.41 1020.25 1020.10 1019.96 1019.82 1019.66 1019.48 1019.29 1019.10 1018.92 1018.78 1018.68 1018.61 1018.58 1018.59 1018.62 1018.68 1018.76 1018.87 1019.03 1019.24 1019.48 1019.76 1020.01 1020.22 1020.33 1020.30 1020.09 1019.70 1019.14 1018.44 1017.64 1016.82 1016.02 1015.30 1014.70 1014.24 1013.93 1013.79 1013.80 1013.98 1014.30 1014.78
1020.61 1020.44 1020.29 1020.15 1020.00 1019.83 1019.63 1019.42 1019.20 1018.98 1018.80 1018.66 1018.57 1018.52 1018.51 1018.54 1018.60 1018.70 1018.83 1019.02 1019.25 1019.53 1019.84 1020.13 1020.37 1020.51 1020.50 1020.31 1019.93 1019.37 1018.66 1017.84 1016.98 1016.14 1015.37 1014.71 1014.21 1013.87 1013.70 1013.72 1013.91 1014.28 1014.80
1020.81 1020.63 1020.47 1020.33 1020.17 1019.98 1019.77 1019.53 1019.28 1019.03 1018.80 1018.62 1018.48 1018.39 1018.35 1018.35 1018.39 1018.48 1018.62 1018.82 1019.08 1019.39 1019.73 1020.08 1020.37 1020.56 1020.61 1020.49 1020.17 1019.66 1018.99 1018.20 1017.36 1016.52 1015.75 1015.09 1014.58 1014.24 1014.08 1014.12 1014.33 1014.73 1015.29
1021.03 1020.85 1020.69 1020.53 1020.36 1020.15 1019.92 1019.65 1019.36 1019.07 1018.80 1018.56 1018.36 1018.22 1018.12 1018.07 1018.08 1018.14 1018.27 1018.48 1018.75 1019.09 1019.48 1019.88 1020.24 1020.52 1020.66 1020.63 1020.41 1020.00 1019.43 1018.73 1017.97 1017.20 1016.48 1015.86 1015.38 1015.06 1014.92 1014.97 1015.21 1015.62 1016.20
1021.29 1021.11 1020.94 1020.77 1020.57 1020.35 1020.08 1019.78 1019.46 1019.12 1018.80 1018.50 1018.24 1018.03 1017.86 1017.76 1017.71 1017.74 1017.85 1018.04 1018.33 1018.70 1019.13 1019.59 1020.03 1020.40 1020.65 1020.75 1020.67 1020.40 1019.97 1019.41 1018.77 1018.11 1017.49 1016.95 1016.52 1016.25 1016.14 1016.21 1016.45 1016.85 1017.41
1021.59 1021.41 1021.23 1021.04 1020.83 1020.57 1020.28 1019.94 1019.57 1019.20 1018.82 1018.46 1018.14 1017.86 1017.63 1017.46 1017.36 1017.35 1017.43 1017.61 1017.89 1018.28 1018.75 1019.26 1019.78 1020.25 1020.62 1020.86 1020.93 1020.83 1020.57 1020.19 1019.71 1019.20 1018.69 1018.25 1017.91 1017.68 1017.60 1017.67 1017.89 1018.25 1018.75
1021.91 1021.72 1021.53 1021.33 1021.09 1020.81 1020.49 1020.12 1019.72 1019.29 1018.88 1018.47 1018.09 1017.76 1017.47 1017.25 1017.10 1017.04 1017.09 1017.24 1017.52 1017.91 1018.40 1018.96 1019.53 1020.09 1020.57 1020.94 1021.17 1021.25 1021.17 1020.97 1020.67 1020.31 1019.95 1019.61 1019.34 1019.16 1019.10 1019.15 1019.33 1019.63 1020.04
1022.19 1022.00 1021.81 1021.59 1021.33 1021.03 1020.68 1020.29 1019.87 1019.42 1018.97 1018.53 1018.11 1017.74 1017.41 1017.14 1016.95 1016.86 1016.87 1017.00 1017.26 1017.64 1018.13 1018.70 1019.32 1019.93 1020.50 1020.98 1021.35 1021.58 1021.68 1021.65 1021.52 1021.33 1021.09 1020.86 1020.66 1020.52 1020.45 1020.47 1020.59 1020.81 1021.12
1022.38 1022.21 1022.01 1021.78 1021.52 1021.20 1020.84 1020.44 1020.00 1019.54 1019.08 1018.62 1018.19 1017.79 1017.44 1017.15 1016.93 1016.81 1016.79 1016.89 1017.12 1017.47 1017.94 1018.50 1019.12 1019.77 1020.40 1020.96 1021.43 1021.79 1022.03 1022.16 1022.18 1022.11 1022.00 1021.85 1021.71 1021.59 1021.51 1021.49 1021.54 1021.67 1021.87
1022.46 1022.29 1022.10 1021.88 1021.61 1021.30 1020.94 1020.54 1020.10 1019.65 1019.19 1018.74 1018.30 1017.90 1017.54 1017.24 1017.01 1016.86 1016.81 1016.88 1017.07 1017.39 1017.82 1018.35 1018.96 1019.60 1020.24 1020.85 1021.39 1021.84 1022.18 1022.42 1022.55 1022.59 1022.57 1022.49 1022.39 1022.27 1022.18 1022.11 1022.09 1022.13 1022.24
1022.41 1022.25 1022.07 1021.85 1021.60 1021.30 1020.95 1020.57 1020.15 1019.71 1019.27 1018.83 1018.41 1018.02 1017.67 1017.36 1017.12 1016.96 1016.89 1016.93 1017.09 1017.36 1017.75 1018.24 1018.80 1019.42 1020.05 1020.66 1021.22 1021.71 1022.11 1022.42 1022.63 1022.74 1022.77 1022.74 1022.66 1022.55 1022.43 1022.32 1022.25 1022.22 1022.25
1022.22 1022.09 1021.92 1021.73 1021.49 1021.21 1020.89 1020.53 1020.14 1019.72 1019.31 1018.89 1018.49 1018.12 1017.78 1017.48 1017.24 1017.07 1016.99 1017.00 1017.12 1017.36 1017.70 1018.14 1018.65 1019.22 1019.81 1020.40 1020.95 1021.45 1021.87 1022.20 1022.44 1022.59 1022.65 1022.64 1022.57 1022.46 1022.32 1022.19 1022.07 1021.99 1021.96
1021.96 1021.84 1021.71 1021.54 1021.33 1021.08 1020.78 1020.45 1020.08 1019.70 1019.30 1018.91 1018.53 1018.17 1017.84 1017.55 1017.32 1017.15 1017.06 1017.06 1017.16 1017.36 1017.66 1018.05 1018.52 1019.04 1019.58 1020.12 1020.64 1021.10 1021.51 1021.83 1022.07 1022.22 1022.28 1022.28 1022.21 1022.09 1021.95 1021.80 1021.66 1021.56 1021.50
1021.67 1021.58 1021.48 1021.34 1021.16 1020.93 1020.67 1020.36 1020.02 1019.65 1019.28 1018.91 1018.54 1018.20 1017.88 1017.60 1017.36 1017.20 1017.10 1017.10 1017.18 1017.36 1017.64 1018.00 1018.42 1018.89 1019.38 1019.87 1020.33 1020.75 1021.11 1021.40 1021.61 1021.74 1021.79 1021.78 1021.71 1021.59 1021.45 1021.29 1021.15 1021.04 1020.97
1021.42 1021.37 1021.30 1021.19 1021.03 1020.84 1020.59 1020.30 1019.98 1019.64 1019.28 1018.92 1018.56 1018.23 1017.91 1017.64 1017.41 1017.24 1017.15 1017.14 1017.23 1017.40 1017.66 1017.99 1018.38 1018.81 1019.25 1019.69 1020.09 1020.45 1020.76 1020.99 1021.16 1021.25 1021.28 1021.25 1021.18 1021.07 1020.93 1020.79 1020.66 1020.55 1020.48
Thickness
5709 5708 5708 5708 5707 5708 5708 5708 5708 5709 5709 5709 5710 5710 5710 5709 5709 5709 5710 5710 5709 5709 5709 5709 5708 5707 5706 5706 5705 5704 5704 5704 5703 5703 5702 5702 5702 5701 5700 5699 5698 5697 5696
5704 5703 5702 5702 5702 5703 5703 5704 5703 5703 5703 5703 5704 5704 5704 5704 5705 5705 5705 5705 5706 5706 5706 5705 5705 5704 5704 5703 5702 5702 5702 5702 5701 5701 5701 5700 5700 5699 5698 5697 5696 5695 5694
5698 5698 5696 5696 5697 5697 5698 5698 5699 5698 5698 5698 5699 5699 5699 5699 5699 5699 5699 5700 5701 5701 5701 5700 5700 5700 5700 5700 5699 5699 5699 5699 5699 5699 5699 5698 5697 5697 5696 5695 5693 5692 5691
5692 5691 5690 5690 5691 5692 5692 5692 5692 5691 5691 5691 5692 5693 5693 5693 5694 5694 5694 5694 5695 5695 5694 5695 5695 5695 5696 5695 5696 5696 5696 5696 5697 5697 5697 5696 5695 5694 5693 5692 5690 5689 5687
5685 5685 5685 5685 5685 5685 5685 5686 5685 5684 5683 5684 5685 5686 5686 5687 5687 5688 5688 5688 5688 5688 5688 5688 5689 5689 5690 5690 5691 5692 5692 5693 5693 5694 5694 5693 5692 5691 5690 5689 5687 5685 5684
5678 5678 5678 5678 5678 5677 5677 5678 5678 5678 5677 5677 5679 5678 5678 5679 5679 5680 5681 5681 5681 5681 5681 5682 5682 5683 5683 5684 5685 5686 5688 5689 5689 5689 5689 5689 5688 5687 5686 5685 5684 5682 5680
5670 5670 5670 5670 5670 5669 5670 5671 5670 5669 5669 5670 5669 5668 5670 5671 5671 5672 5673 5673 5674 5674 5674 5674 5675 5675 5676 5677 5678 5680 5682 5684 5684 5684 5684 5684 5684 5683 5682 5681 5680 5678 5676
5661 5661 5660 5661 5662 5662 5662 5663 5662 5661 5662 5663 5661 5659 5658 5659 5661 5663 5664 5664 5665 5666 5666 5666 5667 5667 5668 5669 5670 5673 5675 5677 5679 5679 5679 5679 5679 5678 5677 5676 5675 5673 5671
5652 5652 5652 5652 5653 5653 5653 5654 5654 5654 5653 5655 5656 5654 5650 5649 5650 5651 5653 5654 5656 5656 5656 5657 5658 5659 5660 5661 5663 5665 5668 5670 5672 5673 5673 5673 5673 5673 5672 5671 5669 5668 5665
5643 5643 5644 5644 5644 5645 5645 5646 5646 5646 5646 5645 5647 5649 5648 5648 5644 5642 5643 5644 5646 5646 5647 5648 5649 5650 5652 5653 5656 5658 5661 5663 5664 5665 5666 5667 5667 5666 5666 5665 5663 5660 5658
5634 5634 5634 5635 5635 5636 5636 5637 5638 5638 5639 5639 5639 5640 5640 5641 5641 5638 5635 5635 5635 5636 5638 5639 5640 5641 5643 5645 5648 5651 5654 5656 5657 5658 5659 5659 5659 5659 5658 5657 5655 5653 5651
5624 5625 5625 5626 5626 5627 5627 5628 5629 5630 5631 5632 5632 5632 5632 5632 5632 5632 5630 5629 5628 5627 5629 5630 5631 5633 5634 5636 5639 5642 5645 5647 5649 5650 5650 5651 5651 5650 5650 5648 5647 5644 5642
5614 5615 5616 5617 5617 5618 5619 5620 5621 5622 5623 5624 5625 5625 5626 5626 5627 5627 5625 5622 5621 5620 5621 5622 5623 5624 5626 5627 5630 5632 5635 5637 5639 5640 5641 5642 5642 5641 5641 5639 5638 5636 5634
5607 5607 5608 5609 5609 5611 5612 5612 5613 5614 5615 5616 5617 5618 5619 5620 5621 5621 5620 5618 5615 5613 5613 5613 5615 5616 5617 5619 5621 5623 5625 5627 5629 5630 5631 5632 5632 5631 5631 5629 5628 5626 5625
5599 5600 5600 5600 5601 5602 5603 5604 5605 5606 5607 5608 5609 5611 5612 5613 5615 5615 5616 5615 5612 5609 5607 5606 5607 5608 5609 5610 5612 5614 5615 5617 5618 5619 5620 5621 5622 5621 5620 5620 5618 5617 5616
5592 5591 5591 5592 5592 5593 5595 5596 5597 5598 5599 5600 5602 5603 5604 5605 5607 5608 5608 5608 5608 5605 5602 5600 5600 5601 5601 5602 5603 5604 5605 5607 5608 5609 5610 5611 5611 5611 5610 5610 5609 5607 5607
5583 5583 5583 5583 5583 5584 5586 5587 5589 5590 5592 5593 5594 5596 5597 5598 5599 5600 5601 5601 5601 5600 5596 5593 5593 5593 5594 5594 5595 5595 5596 5598 5599 5599 5600 5601 5601 5601 5600 5600 5599 5598 5597
5575 5575 5574 5574 5575 5576 5577 5579 5580 5582 5583 5585 5587 5589 5589 5591 5592 5593 5593 5594 5593 5593 5591 5588 5586 5585 5585 5586 5587 5588 5588 5589 5590 5590 5591 5591 5591 5591 5591 5590 5590 5589 5588
5567 5566 5566 5566 5566 5568 5569 5571 5572 5574 5575 5577 5579 5580 5582 5583 5584 5585 5586 5586 5586 5586 5585 5583 5579 5578 5578 5579 5579 5579 5581 5581 5582 5583 5583 5583 5583 5583 5583 5583 5582 5581 5580
5560 5559 5559 5559 5559 5560 5562 5564 5566 5567 5568 5570 5572 5573 5575 5576 5577 5578 5579 5579 5579 5578 5577 5576 5573 5571 5571 5572 5572 5571 5572 5573 5575 5576 5577 5576 5576 5577 5577 5576 5576 5575 5574
5555 5554 5553 5552 5553 5554 5556 5558 5559 5560 5561 5563 5565 5567 5569 5571 5572 5573 5574 5573 5573 5572 5571 5569 5568 5566 5566 5566 5565 5565 5566 5566 5568 5570 5570 5570 5571 5571 5572 5572 5571 5571 5571
5549 5549 5547 5547 5548 5549 5551 5553 5555 5555 5556 5557 5559 5561 5563 5565 5567 5568 5568 5569 5569 5568 5566 5565 5563 5563 5562 5562 5562 5562 5561 5561 5562 5565 5564 5565 5566 5567 5568 5568 5569 5569 5568
5545 5544 5543 5543 5543 5545 5547 5549 5551 5551 5551 5552 5553 5555 5558 5559 5561 5561 5562 5563 5564 5564 5564 5563 5561 5560 5560 5560 5560 5559 5558 5558 5559 5562 5561 5561 5563 5563 5566 5567 5567 5567 5567
5541 5540 5540 5540 5540 5542 5544 5545 5547 5547 5547 5548 5549 5550 5551 5553 5555 5556 5557 5558 5558 5559 5560 5559 5559 5559 5559 5559 5559 5558 5557 5557 5558 5560 5560 5558 5560 5562 5566 5567 5567 5567 5567
5539 5539 5539 5538 5538 5539 5541 5542 5543 5543 5543 5543 5545 5546 5547 5549 5551 5553 5553 5553 5553 5554 5556 5556 5557 5557 5558 5558 5558 5556 5555 5554 5554 5557 5558 5558 5559 5560 5563 5566 5568 5567 5567
5539 5538 5538 5537 5537 5538 5539 5540 5540 5540 5539 5539 5540 5542 5544 5546 5548 5549 5549 5549 5549 5550 5551 5553 5554 5555 5556 5557 5558 5557 5556 5553 5553 5554 5558 5557 5558 5559 5560 5564 5566 5567 5566